sat.trackr.live / text

‹ back to catalog

STARLINK-31231

NORAD 59034 · 2024-038M

PAYLOAD ACTIVE UNKNOWN

§ Identity

Operator
Country
US
Launch date
2024-02-25
Launch site
AFETR
Launch vehicle
Mass (kg)
RCS (m²)

Purposes: comms

External: N2YO · Heavens-Above · Gunter

§ Orbital elements

Epoch: 2026-09-20T13:53:28.738176Z

Period
94.27 min
Inclination
43.0029°
Eccentricity
0.0001166
Mean motion
15.27579126 rev/d
Perigee alt
482.3 km
Apogee alt
483.9 km
Semi-major
6,861.2 km
B*
-2.5209e-5
RAAN
2.9676°
Arg perigee
269.6089°
Mean anomaly
90.4629°
Rev number
14,449

§ Raw data

STARLINK-312311 59034U 24038M   26263.57880484 -.00000956  00000+0 -25209-4 0  99942 59034  43.0029   2.9676 0001166 269.6089  90.4629 15.27579126144492

JSON: /api/v1/satellites/59034 · /tle

For live sub-satellite position, see the globe view (requires WebGL).

§ Visibility from observer

Set your observer location to see the next 7 days of passes ≥ 10°. The values pass through the URL so the page stays shareable.

No JS? Fill the form by hand. The geolocation button needs JavaScript.